• In United Kingdom
  • List of Countries
  • For 7 days
  • Water Temperature
  • Satellite Maps
  • Weather Map
  • Weather Widgets
  • user-avatar
    Login

    Hourly Weather Rajmundow

    Today, 18 June, Monday

    Time Temperature Precipitation Wind Pressure Humidity
    00:00 +20°C° 0.2 mm 1 mps 750 mmHg 79%
    01:00 +18°C° 0 mm 2 mps 750 mmHg 84%
    02:00 +17°C° 0.1 mm 2 mps 750 mmHg 86%
    03:00 +17°C° 0.1 mm 2 mps 750 mmHg 88%
    04:00 +16°C° 0.1 mm 2 mps 750 mmHg 90%
    05:00 +17°C° 0 mm 3 mps 751 mmHg 86%
    06:00 +18°C° 0 mm 3 mps 751 mmHg 81%
    07:00 +20°C° 0 mm 3 mps 751 mmHg 77%
    08:00 +21°C° 0.5 mm 3 mps 751 mmHg 73%
    09:00 +22°C° 0.5 mm 3 mps 751 mmHg 69%
    10:00 +24°C° 0.5 mm 3 mps 752 mmHg 65%
    11:00 +25°C° 0.3 mm 3 mps 752 mmHg 61%
    12:00 +26°C° 0.3 mm 3 mps 752 mmHg 57%
    13:00 +27°C° 0.3 mm 3 mps 752 mmHg 53%
    14:00 +27°C° 0.3 mm 3 mps 752 mmHg 54%
    15:00 +26°C° 0.3 mm 3 mps 751 mmHg 56%
    16:00 +26°C° 0.3 mm 3 mps 751 mmHg 57%
    17:00 +25°C° 0.2 mm 3 mps 751 mmHg 62%
    18:00 +24°C° 0.2 mm 3 mps 751 mmHg 67%
    19:00 +23°C° 0.2 mm 2 mps 752 mmHg 72%
    20:00 +21°C° 0 mm 2 mps 752 mmHg 75%
    21:00 +19°C° 0 mm 2 mps 752 mmHg 77%
    22:00 +18°C° 0 mm 2 mps 752 mmHg 80%
    23:00 +17°C° 0 mm 2 mps 752 mmHg 81%

    Tomorrow, 19 June, Tuesday

    Time Temperature Precipitation Wind Pressure Humidity
    00:00 +17°C° 0 mm 2 mps 753 mmHg 82%
    01:00 +16°C° 0 mm 2 mps 753 mmHg 84%
    02:00 +16°C° 0 mm 2 mps 753 mmHg 84%
    03:00 +15°C° 0 mm 2 mps 753 mmHg 85%
    04:00 +15°C° 0 mm 2 mps 753 mmHg 86%
    05:00 +17°C° 0 mm 2 mps 753 mmHg 80%
    06:00 +18°C° 0 mm 2 mps 753 mmHg 74%
    07:00 +20°C° 0 mm 3 mps 753 mmHg 68%
    08:00 +21°C° 0 mm 3 mps 753 mmHg 64%
    09:00 +23°C° 0 mm 4 mps 753 mmHg 61%
    10:00 +25°C° 0 mm 4 mps 753 mmHg 57%
    11:00 +25°C° 0.1 mm 4 mps 753 mmHg 60%
    12:00 +23°C° 0.1 mm 4 mps 753 mmHg 62%
    13:00 +23°C° 0.1 mm 4 mps 753 mmHg 65%
    14:00 +25°C° 0 mm 4 mps 753 mmHg 63%
    15:00 +25°C° 0 mm 4 mps 753 mmHg 61%
    16:00 +25°C° 0 mm 4 mps 753 mmHg 59%
    17:00 +25°C° 0 mm 4 mps 753 mmHg 64%
    18:00 +24°C° 0 mm 3 mps 753 mmHg 68%
    19:00 +23°C° 0 mm 2 mps 753 mmHg 73%
    20:00 +21°C° 0 mm 2 mps 754 mmHg 75%
    21:00 +19°C° 0 mm 2 mps 754 mmHg 77%
    22:00 +18°C° 0 mm 2 mps 754 mmHg 80%
    23:00 +18°C° 0 mm 2 mps 754 mmHg 81%

    Day after tomorrow, 20 June, Wednesday

    Time Temperature Precipitation Wind Pressure Humidity
    00:00 +17°C° 0 mm 2 mps 754 mmHg 83%
    01:00 +17°C° 0 mm 2 mps 755 mmHg 84%
    02:00 +16°C° 0 mm 2 mps 755 mmHg 86%
    03:00 +16°C° 0 mm 2 mps 755 mmHg 88%
    04:00 +16°C° 0 mm 2 mps 755 mmHg 90%
    05:00 +17°C° 0 mm 2 mps 755 mmHg 85%
    06:00 +19°C° 0 mm 2 mps 755 mmHg 79%
    07:00 +20°C° 0 mm 2 mps 755 mmHg 74%
    08:00 +21°C° 0 mm 2 mps 755 mmHg 69%
    09:00 +23°C° 0 mm 2 mps 755 mmHg 65%
    10:00 +24°C° 0 mm 3 mps 755 mmHg 61%
    11:00 +25°C° 0 mm 3 mps 755 mmHg 58%
    12:00 +26°C° 0 mm 3 mps 755 mmHg 55%
    13:00 +27°C° 0 mm 3 mps 754 mmHg 52%
    14:00 +27°C° 0 mm 3 mps 754 mmHg 52%
    15:00 +27°C° 0 mm 3 mps 754 mmHg 52%
    16:00 +27°C° 0 mm 3 mps 754 mmHg 52%
    17:00 +26°C° 0 mm 2 mps 753 mmHg 57%
    18:00 +25°C° 0 mm 2 mps 753 mmHg 63%
    19:00 +24°C° 0 mm 2 mps 753 mmHg 68%
    20:00 +23°C° 0 mm 2 mps 753 mmHg 72%
    21:00 +22°C° 0 mm 1 mps 753 mmHg 75%
    22:00 +20°C° 0 mm 1 mps 753 mmHg 79%
    23:00 +20°C° 0 mm 1 mps 753 mmHg 81%

    21 June, Thursday

    Time Temperature Precipitation Wind Pressure Humidity
    00:00 +19°C° 0 mm 1 mps 753 mmHg 83%
    01:00 +19°C° 0 mm 1 mps 752 mmHg 85%
    02:00 +19°C° 0 mm 1 mps 752 mmHg 86%
    03:00 +19°C° 0 mm 1 mps 752 mmHg 87%
    04:00 +18°C° 0 mm 2 mps 751 mmHg 87%
    05:00 +19°C° 0 mm 2 mps 751 mmHg 82%
    06:00 +21°C° 0 mm 2 mps 751 mmHg 77%
    07:00 +24°C° 0 mm 3 mps 750 mmHg 71%
    08:00 +25°C° 0.1 mm 3 mps 750 mmHg 67%
    09:00 +27°C° 0.1 mm 4 mps 749 mmHg 62%
    10:00 +28°C° 0.1 mm 4 mps 749 mmHg 57%
    11:00 +28°C° 0.1 mm 4 mps 748 mmHg 55%
    12:00 +29°C° 0.1 mm 4 mps 747 mmHg 53%
    13:00 +30°C° 0.1 mm 4 mps 746 mmHg 51%
    14:00 +30°C° 0 mm 4 mps 745 mmHg 52%
    15:00 +30°C° 0 mm 4 mps 745 mmHg 53%
    16:00 +30°C° 0 mm 4 mps 744 mmHg 53%
    17:00 +29°C° 0.1 mm 4 mps 743 mmHg 59%
    18:00 +28°C° 0.1 mm 3 mps 742 mmHg 64%
    19:00 +27°C° 0.1 mm 3 mps 742 mmHg 70%
    20:00 +25°C° 1.2 mm 4 mps 742 mmHg 76%
    21:00 +22°C° 1.2 mm 5 mps 742 mmHg 82%
    22:00 +21°C° 1.2 mm 6 mps 742 mmHg 88%
    23:00 +19°C° 0.2 mm 6 mps 743 mmHg 88%

    22 June, Friday

    Time Temperature Precipitation Wind Pressure Humidity
    00:00 +16°C° 0.2 mm 7 mps 743 mmHg 88%
    01:00 +13°C° 0.2 mm 8 mps 744 mmHg 88%
    02:00 +12°C° 0 mm 7 mps 745 mmHg 87%
    03:00 +11°C° 0 mm 7 mps 745 mmHg 86%
    04:00 +9°C° 0 mm 6 mps 746 mmHg 84%
    05:00 +10°C° 0 mm 7 mps 746 mmHg 80%
    06:00 +10°C° 0 mm 7 mps 747 mmHg 77%
    07:00 +10°C° 0 mm 8 mps 747 mmHg 73%
    08:00 +11°C° 0 mm 7 mps 747 mmHg 68%
    09:00 +12°C° 0 mm 7 mps 747 mmHg 63%
    10:00 +14°C° 0 mm 7 mps 747 mmHg 58%
    11:00 +14°C° 0.1 mm 7 mps 747 mmHg 57%
    12:00 +15°C° 0.1 mm 7 mps 747 mmHg 56%
    13:00 +15°C° 0.1 mm 7 mps 747 mmHg 55%
    14:00 +15°C° 0.1 mm 7 mps 747 mmHg 54%
    15:00 +15°C° 0.1 mm 8 mps 747 mmHg 54%
    16:00 +16°C° 0.1 mm 8 mps 747 mmHg 54%
    17:00 +15°C° 0 mm 7 mps 747 mmHg 57%
    18:00 +14°C° 0 mm 6 mps 747 mmHg 61%
    19:00 +14°C° 0 mm 5 mps 747 mmHg 65%
    20:00 +13°C° 0 mm 4 mps 747 mmHg 68%
    21:00 +12°C° 0 mm 4 mps 747 mmHg 71%
    22:00 +11°C° 0 mm 4 mps 747 mmHg 74%
    23:00 +11°C° 0 mm 4 mps 747 mmHg 77%

    23 June, Saturday

    Time Temperature Precipitation Wind Pressure Humidity
    00:00 +10°C° 0 mm 4 mps 747 mmHg 79%
    01:00 +10°C° 0 mm 4 mps 747 mmHg 82%
    02:00 +10°C° 0 mm 4 mps 747 mmHg 86%
    03:00 +10°C° 0 mm 4 mps 747 mmHg 89%
    04:00 +8°C° 0 mm 4 mps 747 mmHg 92%
    05:00 +9°C° 0.1 mm 5 mps 747 mmHg 89%
    06:00 +10°C° 0.1 mm 6 mps 747 mmHg 85%
    07:00 +11°C° 0.1 mm 6 mps 747 mmHg 82%
    08:00 +11°C° 0.1 mm 6 mps 747 mmHg 79%
    09:00 +12°C° 0.1 mm 7 mps 747 mmHg 76%
    10:00 +12°C° 0.1 mm 7 mps 748 mmHg 73%
    11:00 +12°C° 0.1 mm 7 mps 748 mmHg 70%
    12:00 +14°C° 0.1 mm 7 mps 748 mmHg 68%
    13:00 +14°C° 0.1 mm 7 mps 748 mmHg 65%
    14:00 +14°C° 0.1 mm 7 mps 748 mmHg 66%
    15:00 +14°C° 0.1 mm 7 mps 748 mmHg 67%
    16:00 +14°C° 0.1 mm 7 mps 748 mmHg 68%
    17:00 +14°C° 0.1 mm 6 mps 748 mmHg 70%
    18:00 +14°C° 0.1 mm 5 mps 748 mmHg 73%
    19:00 +13°C° 0.1 mm 5 mps 748 mmHg 75%
    20:00 +13°C° 0 mm 5 mps 749 mmHg 76%
    21:00 +12°C° 0 mm 5 mps 749 mmHg 78%
    22:00 +12°C° 0 mm 5 mps 750 mmHg 79%
    23:00 +10°C° 0 mm 5 mps 750 mmHg 81%
    Show more